[[{"header":{"parameterUnit":"m.s-1","parameterCategory":1,"la1":30.2991,"la2":30.254,"lo1":-89.0895,"lo2":-89.0444,"dy":0.0017,"dx":0.0017,"nx":28,"ny":28,"refTime":"2024-08-11T21:00:00:Z","depth":0,"parameterNumber":2,"parameterNumberName":"U-component_of_WINDS"},"data":[0,0,0,0,0,0,0,0,0,0,0,0,0,0,0,0,0,0,0,0,0,0,0,0,0,0,0,0,0,0,0,0,0,0,0,0,0,0,0,0,0,0,0,0,0,0,0,0,0,0,0,0,0,0,0,0,0,0,3.2611,3.2612,0,3.2677,3.2677,3.2678,3.2541,3.2536,3.2532,3.2527,3.26,3.2606,3.2612,0,0,0,0,0,0,0,0,0,0,0,0,0,3.2373,3.2378,3.2611,3.2612,3.2613,3.2677,3.2677,3.2678,3.2541,3.2536,3.2531,3.2525,3.2598,3.2605,3.2612,0,0,0,0,0,0,0,0,0,0,0,0,0,3.2461,3.2379,3.2611,3.2552,3.2547,3.2676,3.2677,3.2679,3.2543,3.2536,3.2529,3.2523,3.2596,3.2604,3.2613,3.2804,0,0,3.2641,3.2645,0,0,0,0,0,0,0,0,3.2456,3.247,3.256,3.2556,3.2551,3.2593,3.262,3.2721,3.2544,3.2545,3.2527,3.252,3.2604,3.2612,3.2639,3.2808,3.2811,3.2642,3.2648,3.2652,3.2654,0,0,0,0,0,0,0,3.245,3.2467,3.2637,3.2561,3.2556,3.2524,3.2529,3.2638,3.2611,3.2544,3.2534,3.2544,3.26,3.263,3.264,3.2812,3.2642,3.265,3.2656,3.2659,3.3141,3.3148,0,0,0,0,0,0,3.2451,3.2462,3.2635,3.2639,3.2486,3.2534,3.2539,3.2587,3.261,3.2606,3.2549,3.2537,3.2618,3.2629,3.2642,3.2866,3.2652,3.266,3.2665,3.3134,3.3143,3.3151,0,0,0,0,0,0,3.2446,3.2468,3.2632,3.2548,3.2567,3.2545,3.2599,3.2592,3.2622,3.2613,3.2608,3.2585,3.2613,3.2629,3.2765,3.2867,3.2664,3.2673,3.3125,3.3137,3.3147,3.3318,0,0,0,0,0,0,3.244,3.2467,3.2538,3.2551,3.2572,3.2753,3.2606,3.2598,3.2637,3.2622,3.2645,3.2643,3.2609,3.2752,3.2774,3.2876,3.268,3.3116,3.313,3.3143,3.3303,3.3334,3.336,0,0,0,0,0,3.2432,3.2585,3.2542,3.2564,3.266,3.276,3.2772,3.2728,3.2646,3.2718,3.2713,3.2642,3.2852,3.2767,3.279,3.2897,3.3109,3.3126,3.3142,3.3291,3.3328,3.3359,0,0,0,0,0,0,3.2587,3.2585,3.2538,3.2699,3.273,3.2736,3.2825,3.2769,3.2825,3.2808,3.2753,3.276,3.2907,3.2915,3.282,3.3083,3.2967,3.2989,3.3072,3.3107,3.3135,3.313,3.2687,0,0,0,0,0,3.2639,3.2719,3.2714,3.2857,3.2874,3.2848,3.289,3.2853,3.2884,3.2897,3.2901,3.2935,3.3008,3.3058,3.3125,3.3304,3.3307,3.3389,3.3417,3.344,3.346,3.3555,3.3592,3.3205,3.3204,3.3204,0,0,3.275,3.2758,3.2812,3.2888,3.2908,3.2993,3.286,3.2955,3.3018,3.2912,3.304,3.3045,3.3079,3.3237,3.3307,3.3249,3.3568,3.3461,3.348,3.3487,3.3576,3.3613,3.3645,3.3216,3.3214,3.3212,0,0,3.2993,3.3008,3.3128,3.315,3.3181,3.3162,3.3191,3.3206,3.3204,3.3332,3.3253,3.3328,3.3456,3.3484,3.3515,3.3769,3.3707,3.3793,3.394,3.4034,3.4064,3.4091,3.4182,3.4215,3.3812,3.3813,3.3813,0,3.3126,3.3249,3.3198,3.3298,3.3334,3.324,3.3362,3.3387,3.344,3.3467,3.3401,3.3559,3.3576,3.3739,3.3801,3.3829,3.3861,3.379,3.4064,3.409,3.4114,3.4201,3.4235,3.3823,3.3822,3.3821,3.382,0,3.3412,3.3499,3.3592,3.3643,3.369,3.3801,3.3768,3.3822,3.3781,3.377,3.3902,3.3918,3.3987,3.4023,3.3985,3.4182,3.4144,3.4072,3.3955,3.4162,3.4242,3.4275,3.3838,3.3834,3.3831,3.3829,0,0,3.3755,3.3775,3.381,3.3832,3.386,3.3926,3.4034,3.41,3.4147,3.4187,3.4276,3.4386,3.4319,3.4355,3.4319,3.4402,3.4602,3.4319,3.4319,3.4371,3.482,3.4875,3.4914,3.4561,3.4567,3.4572,3.4817,0,3.3996,3.4179,3.4135,3.4317,3.4397,3.4309,3.4402,3.443,3.4423,3.4491,3.4483,3.4562,3.4468,3.4488,3.4566,3.4562,3.4692,3.4543,3.4645,3.4649,3.4639,3.4955,3.5013,3.5244,3.4848,3.4854,3.4857,0,3.4302,3.4351,3.454,3.4554,3.4586,3.4671,3.4727,3.4793,3.4824,3.4813,3.4852,3.4801,3.4909,3.479,3.4939,3.4839,3.4878,3.4882,3.489,3.4898,3.4766,3.4972,3.5316,3.5351,3.4906,3.4902,3.4899,0,3.4533,3.4647,3.4775,3.4796,3.4816,3.4878,3.4889,3.4912,3.4955,3.5005,3.5032,3.5095,3.513,3.5181,3.5148,3.5065,3.5303,3.5182,3.5298,3.5299,3.5352,3.535,3.5708,3.5378,3.5378,3.5377,3.5376,0,3.4807,3.4927,3.4879,3.4958,3.5089,3.5039,3.5171,3.5172,3.5194,3.5272,3.5201,3.5276,3.5229,3.5301,3.5277,3.5404,3.542,3.5415,3.5408,3.5422,3.5423,3.5447,3.543,3.5386,3.5384,3.5382,3.5381,0,3.5088,3.5061,3.5194,3.5201,3.5206,3.5303,3.5309,3.5383,3.537,3.5471,3.5492,3.5472,3.5554,3.5526,3.5614,3.5598,3.576,3.5731,3.5749,3.5742,3.586,3.5849,3.6247,3.6296,3.5934,3.5938,3.5941,0,3.5265,3.5354,3.537,3.5417,3.5433,3.5509,3.5551,3.5506,3.5553,3.5594,3.5664,3.5738,3.5796,3.593,3.5925,3.5992,3.5965,3.6099,3.5975,3.5986,3.5967,3.5962,3.5971,3.6125,3.6129,3.6132,3.6135,0,3.5582,3.5563,3.5626,3.5685,3.5736,3.5781,3.5819,3.5862,3.5818,3.5875,3.5957,3.6001,3.609,3.6166,3.6226,3.6239,3.6182,3.6174,3.6205,3.6221,3.6227,3.6225,3.5817,3.6165,3.6162,3.616,3.6159,3.6157,3.5816,3.5891,3.5914,3.5986,3.601,3.6047,3.6117,3.6112,3.6178,3.6245,3.6215,3.631,3.6338,3.6413,3.6435,3.6509,3.6457,3.6501,3.6513,3.6524,3.6539,3.6215,3.652,3.6519,3.6518,3.6517,3.6517,0,3.6129,3.6139,3.6206,3.626,3.6318,3.6256,3.6295,3.6347,3.6431,3.6461,3.6518,3.6613,3.6685,3.6686,3.6754,3.6813,3.6789,3.6833,3.6828,3.6833,3.6582,3.6548,3.6852,3.6852,3.6852,3.6852,3.6852,3.6852,3.6298,3.6422,3.6407,3.6543,3.6552,3.6642,3.667,3.6705,3.6729,3.6836,3.6896,3.6894,3.6914,3.6982,3.7047,3.7045,3.7074,3.7129,3.7118,3.6883,3.685,3.6818,3.6787,3.7136,3.7136,3.7362,3.7364,3.7366]},{"header":{"parameterUnit":"m.s-1","parameterCategory":1,"la1":30.2991,"la2":30.254,"lo1":-89.0895,"lo2":-89.0444,"dy":0.0017,"dx":0.0017,"nx":28,"ny":28,"refTime":"2024-08-11T21:00:00:Z","depth":0,"parameterNumber":3,"parameterNumberName":"V-component_of_WINDS"},"data":[0,0,0,0,0,0,0,0,0,0,0,0,0,0,0,0,0,0,0,0,0,0,0,0,0,0,0,0,0,0,0,0,0,0,0,0,0,0,0,0,0,0,0,0,0,0,0,0,0,0,0,0,0,0,0,0,0,0,-0.6887,-0.6887,0,-0.6863,-0.6863,-0.6863,-0.6878,-0.6879,-0.688,-0.6881,-0.6853,-0.6852,-0.685,0,0,0,0,0,0,0,0,0,0,0,0,0,-0.6944,-0.6943,-0.6887,-0.6887,-0.6887,-0.6863,-0.6863,-0.6862,-0.6878,-0.6879,-0.688,-0.6881,-0.6853,-0.6852,-0.685,0,0,0,0,0,0,0,0,0,0,0,0,0,-0.692,-0.6943,-0.6887,-0.6892,-0.6892,-0.6863,-0.6863,-0.6862,-0.6878,-0.6879,-0.688,-0.6881,-0.6854,-0.6852,-0.685,-0.6814,0,0,-0.6843,-0.6842,0,0,0,0,0,0,0,0,-0.6921,-0.6918,-0.6891,-0.6891,-0.6892,-0.6875,-0.6873,-0.6846,-0.6878,-0.6883,-0.6881,-0.6882,-0.6859,-0.6857,-0.685,-0.6813,-0.6812,-0.6843,-0.6842,-0.6841,-0.684,0,0,0,0,0,0,0,-0.6923,-0.6919,-0.6878,-0.6891,-0.6891,-0.6894,-0.6892,-0.6868,-0.6865,-0.6883,-0.6884,-0.6881,-0.6859,-0.6852,-0.6849,-0.6812,-0.6843,-0.6841,-0.684,-0.6839,-0.6745,-0.6744,0,0,0,0,0,0,-0.6925,-0.692,-0.6878,-0.6877,-0.6909,-0.6892,-0.689,-0.6879,-0.6866,-0.6865,-0.688,-0.6882,-0.6855,-0.6852,-0.6848,-0.6806,-0.6841,-0.6839,-0.6838,-0.6746,-0.6745,-0.6744,0,0,0,0,0,0,-0.6926,-0.6921,-0.6879,-0.6899,-0.6894,-0.689,-0.6878,-0.6878,-0.687,-0.6864,-0.6863,-0.6873,-0.6856,-0.6851,-0.6823,-0.6805,-0.6838,-0.6836,-0.6748,-0.6746,-0.6744,-0.6721,0,0,0,0,0,0,-0.6927,-0.6921,-0.6908,-0.6898,-0.6893,-0.6855,-0.6877,-0.6877,-0.6867,-0.6869,-0.6857,-0.6855,-0.6856,-0.6826,-0.6821,-0.6803,-0.6834,-0.6749,-0.6747,-0.6745,-0.6723,-0.6719,-0.6715,0,0,0,0,0,-0.6929,-0.6902,-0.6907,-0.6902,-0.6876,-0.6854,-0.6851,-0.6853,-0.6865,-0.6852,-0.6848,-0.6856,-0.6808,-0.6823,-0.6817,-0.6798,-0.675,-0.6748,-0.6745,-0.6725,-0.672,-0.6715,0,0,0,0,0,0,-0.6908,-0.69,-0.6906,-0.6875,-0.6865,-0.6857,-0.684,-0.6847,-0.6832,-0.6834,-0.6837,-0.6834,-0.6804,-0.6799,-0.6815,-0.6764,-0.6781,-0.6777,-0.6768,-0.6763,-0.6759,-0.676,-0.6833,0,0,0,0,0,-0.69,-0.6883,-0.6877,-0.685,-0.6845,-0.6843,-0.6833,-0.6836,-0.6825,-0.6821,-0.6815,-0.6803,-0.6786,-0.6774,-0.6758,-0.6723,-0.672,-0.6707,-0.6703,-0.6699,-0.6696,-0.6677,-0.6671,-0.6735,-0.6735,-0.6735,0,0,-0.6882,-0.6876,-0.6865,-0.6846,-0.6838,-0.682,-0.6839,-0.6819,-0.6806,-0.6818,-0.6791,-0.6786,-0.6773,-0.6742,-0.6728,-0.6736,-0.6678,-0.6696,-0.6693,-0.6691,-0.6674,-0.6668,-0.6662,-0.6733,-0.6733,-0.6733,0,0,-0.6841,-0.6835,-0.6812,-0.6805,-0.6794,-0.6793,-0.6788,-0.6778,-0.6776,-0.6749,-0.6758,-0.6742,-0.6711,-0.6702,-0.6694,-0.665,-0.6657,-0.6645,-0.6622,-0.6604,-0.6599,-0.6594,-0.6579,-0.6573,-0.6641,-0.6641,-0.6641,0,-0.6821,-0.6795,-0.6799,-0.6779,-0.677,-0.6781,-0.6757,-0.675,-0.6733,-0.6726,-0.6737,-0.67,-0.6692,-0.6659,-0.6648,-0.6641,-0.6634,-0.6646,-0.6599,-0.6595,-0.6591,-0.6576,-0.657,-0.664,-0.664,-0.664,-0.664,0,-0.677,-0.6751,-0.6734,-0.6719,-0.6708,-0.6686,-0.6687,-0.6675,-0.6679,-0.6677,-0.665,-0.6642,-0.6624,-0.6616,-0.6619,-0.6583,-0.6589,-0.6599,-0.6617,-0.6583,-0.6569,-0.6563,-0.6638,-0.6638,-0.6639,-0.6639,0,0,-0.6713,-0.6703,-0.6696,-0.669,-0.6679,-0.6665,-0.6643,-0.6627,-0.6617,-0.6605,-0.6587,-0.6562,-0.6571,-0.6562,-0.6564,-0.6548,-0.6514,-0.656,-0.656,-0.6552,-0.6474,-0.6466,-0.646,-0.6519,-0.6518,-0.6517,-0.6475,0,-0.6672,-0.6635,-0.6639,-0.6604,-0.6587,-0.6598,-0.6579,-0.657,-0.6568,-0.6553,-0.655,-0.6532,-0.6546,-0.6541,-0.6526,-0.6522,-0.6499,-0.6525,-0.6502,-0.6501,-0.6504,-0.6452,-0.6444,-0.6404,-0.647,-0.6469,-0.6468,0,-0.6618,-0.6606,-0.6569,-0.6562,-0.6555,-0.6538,-0.6524,-0.6509,-0.6499,-0.6499,-0.6489,-0.6494,-0.6472,-0.6491,-0.646,-0.6478,-0.6468,-0.6465,-0.6464,-0.6461,-0.6482,-0.6448,-0.6392,-0.6386,-0.646,-0.646,-0.6461,0,-0.658,-0.6555,-0.653,-0.6524,-0.6515,-0.6503,-0.6498,-0.6489,-0.648,-0.6467,-0.6461,-0.6445,-0.6436,-0.6424,-0.6425,-0.6439,-0.6394,-0.6412,-0.6392,-0.6392,-0.6381,-0.6382,-0.6323,-0.6376,-0.6376,-0.6377,-0.6377,0,-0.6533,-0.651,-0.6513,-0.6498,-0.6473,-0.6477,-0.6452,-0.6448,-0.6441,-0.6424,-0.6433,-0.6417,-0.6419,-0.6403,-0.6404,-0.6378,-0.6374,-0.6373,-0.6373,-0.6372,-0.6372,-0.6365,-0.6368,-0.6375,-0.6375,-0.6376,-0.6376,0,-0.6487,-0.6488,-0.6461,-0.6455,-0.6453,-0.6434,-0.6429,-0.6414,-0.6413,-0.6392,-0.6387,-0.6385,-0.6367,-0.6367,-0.6346,-0.6347,-0.6315,-0.6319,-0.6319,-0.6319,-0.6299,-0.6301,-0.6233,-0.6224,-0.6284,-0.6283,-0.6283,0,-0.6456,-0.6439,-0.6431,-0.6421,-0.6416,-0.64,-0.6391,-0.6394,-0.6384,-0.6372,-0.6358,-0.6341,-0.6328,-0.6298,-0.6294,-0.6279,-0.6282,-0.6259,-0.6279,-0.6278,-0.6281,-0.6282,-0.628,-0.6255,-0.6254,-0.6253,-0.6253,0,-0.6402,-0.6404,-0.639,-0.6376,-0.6365,-0.6354,-0.6344,-0.6336,-0.6338,-0.6326,-0.6308,-0.6298,-0.6277,-0.626,-0.6245,-0.6239,-0.6246,-0.6247,-0.6241,-0.6239,-0.624,-0.6239,-0.6308,-0.6248,-0.6249,-0.6249,-0.6249,-0.6249,-0.6362,-0.6348,-0.634,-0.6325,-0.6318,-0.6309,-0.6295,-0.6292,-0.6278,-0.6262,-0.6265,-0.6245,-0.6236,-0.6216,-0.621,-0.6194,-0.6201,-0.6193,-0.6191,-0.6189,-0.6187,-0.6243,-0.6191,-0.6191,-0.6191,-0.6191,-0.6191,0,-0.6308,-0.6304,-0.629,-0.6277,-0.6264,-0.6273,-0.6263,-0.6252,-0.6235,-0.6226,-0.6213,-0.6192,-0.6176,-0.6171,-0.6156,-0.6144,-0.6146,-0.6139,-0.614,-0.6138,-0.6181,-0.6187,-0.6137,-0.6137,-0.6137,-0.6137,-0.6137,-0.6137,-0.6279,-0.6255,-0.6255,-0.6228,-0.6224,-0.6205,-0.6198,-0.619,-0.6183,-0.616,-0.6147,-0.6145,-0.6137,-0.6121,-0.6107,-0.6106,-0.6099,-0.6091,-0.6091,-0.613,-0.6135,-0.6141,-0.6147,-0.6089,-0.6089,-0.605,-0.605,-0.6049]}]]